| time (UTC) | temp F | wind direction | speed MPH | gust MPH | rain 1hr in | rain 24hr in | rain mn in | humidity % | barometer mb |
| 20260506061538 | 48 | 0 | 0.0 | 0.0 | 0.00 | 0.00 | 0.00 | 58 | 1007.4 |
| 20260506044539 | 49 | 0 | 0.0 | 0.0 | 0.00 | 0.00 | 0.00 | 60 | 1007.3 |
| 20260506043046 | 49 | 0 | 0.0 | 0.0 | 0.00 | 0.00 | 0.00 | 56 | 1007.4 |
| 20260506041542 | 50 | 0 | 0.0 | 0.0 | 0.00 | 0.00 | 0.00 | 57 | 1007.6 |
| 20260506040041 | 50 | 0 | 0.0 | 0.0 | 0.00 | 0.00 | 0.00 | 56 | 1007.6 |
| 20260506034552 | 50 | 0 | 0.0 | 0.0 | 0.00 | 0.00 | 0.00 | 54 | 1007.6 |
| 20260506033038 | 51 | 0 | 0.0 | 0.0 | 0.00 | 0.00 | 0.00 | 55 | 1007.6 |
| 20260506031545 | 51 | 0 | 0.0 | 0.0 | 0.00 | 0.00 | 0.00 | 56 | 1007.5 |
| 20260506030044 | 51 | 0 | 0.0 | 6.0 | 0.00 | 0.00 | 0.00 | 62 | 1007.6 |
| 20260506024557 | 51 | 0 | 0.0 | 0.0 | 0.00 | 0.00 | 0.00 | 71 | 1007.7 |
| 20260506023038 | 51 | 0 | 0.0 | 0.0 | 0.00 | 0.00 | 0.00 | 72 | 1007.7 |
| 20260506021537 | 51 | 0 | 0.0 | 0.0 | 0.00 | 0.00 | 0.00 | 77 | 1007.4 |
| 20260506020045 | 51 | 0 | 0.0 | 0.0 | 0.00 | 0.00 | 0.00 | 78 | 1007.3 |
| 20260506014549 | 51 | 0 | 0.0 | 0.0 | 0.00 | 0.00 | 0.00 | 76 | 1007.3 |
| 20260506013100 | 51 | 0 | 0.0 | 0.0 | 0.00 | 0.00 | 0.00 | 76 | 1007.3 |
| 20260506011542 | 51 | 0 | 0.0 | 0.0 | 0.00 | 0.00 | 0.00 | 75 | 1007.2 |
| 20260506010040 | 51 | 0 | 0.0 | 0.0 | 0.00 | 0.00 | 0.00 | 75 | 1007.1 |
| 20260506004543 | 52 | 0 | 0.0 | 0.0 | 0.00 | 0.00 | 0.00 | 75 | 1007.1 |
| 20260506003039 | 52 | 0 | 0.0 | 0.0 | 0.00 | 0.00 | 0.00 | 73 | 1006.8 |
| 20260506001546 | 53 | 0 | 0.0 | 0.0 | 0.00 | 0.00 | 0.00 | 72 | 1006.6 |
| 20260506000044 | 53 | 0 | 0.0 | 0.0 | 0.00 | 0.00 | 0.00 | 71 | 1006.5 |
| 20260505234541 | 54 | 0 | 0.0 | 0.0 | 0.00 | 0.00 | 0.00 | 70 | 1006.2 |
| 20260505233038 | 54 | 0 | 0.0 | 0.0 | 0.00 | 0.00 | 0.00 | 69 | 1006.2 |
| 20260505231541 | 54 | 0 | 0.0 | 0.0 | 0.00 | 0.00 | 0.00 | 68 | 1006.4 |
| 20260505230056 | 54 | 0 | 0.0 | 0.0 | 0.00 | 0.00 | 0.00 | 67 | 1006.3 |
| 20260505224548 | 54 | 0 | 0.0 | 5.0 | 0.00 | 0.00 | 0.00 | 67 | 1006.5 |
| 20260505223055 | 54 | 167 | 0.0 | 5.0 | 0.00 | 0.00 | 0.00 | 68 | 1006.6 |
| 20260505221548 | 54 | 164 | 2.0 | 6.0 | 0.00 | 0.00 | 0.00 | 68 | 1006.8 |
| 20260505220049 | 55 | 0 | 0.0 | 4.0 | 0.00 | 0.00 | 0.00 | 69 | 1006.6 |
| 20260505214545 | 54 | 0 | 0.0 | 0.0 | 0.00 | 0.00 | 0.00 | 69 | 1006.5 |
| 20260505213054 | 54 | 142 | 0.0 | 4.0 | 0.00 | 0.00 | 0.00 | 71 | 1006.7 |
| 20260505211546 | 54 | 0 | 1.0 | 4.0 | 0.00 | 0.00 | 0.00 | 71 | 1006.6 |
| 20260505210047 | 53 | 0 | 0.0 | 3.0 | 0.00 | 0.00 | 0.00 | 75 | 1006.7 |
| 20260505204540 | 52 | 0 | 0.0 | 3.0 | 0.00 | 0.00 | 0.00 | 79 | 1006.7 |
| 20260505203045 | 52 | 0 | 0.0 | 4.0 | 0.00 | 0.00 | 0.00 | 79 | 1006.7 |
| 20260505201545 | 51 | 0 | 0.0 | 4.0 | 0.00 | 0.00 | 0.00 | 80 | 1006.8 |
| 20260505200044 | 50 | 142 | 0.0 | 5.0 | 0.00 | 0.00 | 0.00 | 80 | 1006.8 |
| 20260505194540 | 50 | 138 | 2.0 | 8.0 | 0.00 | 0.00 | 0.00 | 80 | 1007.1 |
| 20260505193038 | 49 | 0 | 0.0 | 6.0 | 0.00 | 0.00 | 0.00 | 80 | 1007.2 |
| 20260505191546 | 49 | 123 | 1.0 | 8.0 | 0.00 | 0.00 | 0.00 | 79 | 1007.1 |
| 20260505190044 | 49 | 0 | 1.0 | 7.0 | 0.00 | 0.00 | 0.00 | 80 | 1006.8 |
| 20260505184538 | 49 | 0 | 0.0 | 4.0 | 0.00 | 0.00 | 0.00 | 80 | 1006.7 |
| 20260505183053 | 49 | 120 | 1.0 | 7.0 | 0.00 | 0.00 | 0.00 | 79 | 1006.7 |
| 20260505181539 | 49 | 0 | 0.0 | 7.0 | 0.00 | 0.00 | 0.00 | 78 | 1006.7 |
| 20260505180040 | 49 | 103 | 1.0 | 6.0 | 0.00 | 0.00 | 0.00 | 78 | 1006.5 |
| 20260505174541 | 49 | 103 | 2.0 | 6.0 | 0.00 | 0.00 | 0.00 | 78 | 1006.2 |
| 20260505173044 | 48 | 0 | 0.0 | 2.0 | 0.00 | 0.00 | 0.00 | 73 | 1006.6 |
| 20260505171545 | 49 | 49 | 1.0 | 5.0 | 0.00 | 0.00 | 0.00 | 69 | 1006.6 |
| 20260505170043 | 50 | 0 | 0.0 | 4.0 | 0.00 | 0.00 | 0.00 | 62 | 1006.7 |
| 20260505164550 | 51 | 0 | 0.0 | 5.0 | 0.00 | 0.00 | 0.00 | 55 | 1006.7 |
| 20260505163041 | 51 | 56 | 1.0 | 7.0 | 0.00 | 0.00 | 0.00 | 52 | 1006.2 |
| 20260505161546 | 52 | 99 | 2.0 | 8.0 | 0.00 | 0.00 | 0.00 | 51 | 1006.4 |
| 20260505153107 | 52 | 60 | 3.0 | 9.0 | 0.00 | 0.00 | 0.00 | 50 | 1005.5 |
| 20260505151548 | 52 | 69 | 4.0 | 10.0 | 0.00 | 0.00 | 0.00 | 49 | 1005.6 |
| 20260505124546 | 49 | 43 | 1.0 | 10.0 | 0.00 | 0.00 | 0.00 | 56 | 1003.8 |
| 20260505123043 | 49 | 5 | 4.0 | 12.0 | 0.00 | 0.00 | 0.00 | 58 | 1003.8 |
| 20260505121542 | 49 | 53 | 3.0 | 9.0 | 0.00 | 0.00 | 0.00 | 60 | 1003.5 |
| 20260505120038 | 49 | 19 | 1.0 | 10.0 | 0.00 | 0.00 | 0.00 | 61 | 1003.4 |
| 20260505114546 | 49 | 24 | 4.0 | 11.0 | 0.00 | 0.00 | 0.00 | 61 | 1002.8 |
| 20260505113042 | 49 | 24 | 3.0 | 10.0 | 0.00 | 0.00 | 0.00 | 64 | 1002.3 |
| 20260505111550 | 50 | 62 | 4.0 | 11.0 | 0.00 | 0.00 | 0.00 | 65 | 1002.3 |
| 20260505101538 | 58 | 0 | 1.0 | 11.0 | 0.00 | 0.00 | 0.00 | 76 | 1000.7 |
| 20260505100049 | 58 | 271 | 3.0 | 9.0 | 0.00 | 0.00 | 0.00 | 76 | 1000.6 |
| 20260505094543 | 58 | 261 | 3.0 | 11.0 | 0.00 | 0.00 | 0.00 | 75 | 1000.3 |
| 20260505093044 | 58 | 248 | 4.0 | 11.0 | 0.00 | 0.00 | 0.00 | 76 | 1000.1 |
| 20260505091556 | 58 | 0 | 2.0 | 7.0 | 0.00 | 0.00 | 0.00 | 78 | 999.9 |
| 20260505090056 | 57 | 0 | 0.0 | 3.0 | 0.00 | 0.00 | 0.00 | 79 | 999.7 |
| 20260505084540 | 58 | 0 | 0.0 | 5.0 | 0.00 | 0.00 | 0.00 | 78 | 999.5 |
| 20260505083050 | 58 | 0 | 0.0 | 1.0 | 0.00 | 0.00 | 0.00 | 78 | 999.5 |
| 20260505081559 | 57 | 0 | 0.0 | 3.0 | 0.00 | 0.00 | 0.00 | 79 | 999.1 |
| 20260505080047 | 57 | 0 | 0.0 | 4.0 | 0.00 | 0.00 | 0.00 | 80 | 998.8 |
| 20260505074607 | 58 | 0 | 0.0 | 3.0 | 0.00 | 0.00 | 0.00 | 80 | 999.0 |
| 20260505073053 | 58 | 0 | 0.0 | 2.0 | 0.00 | 0.00 | 0.00 | 80 | 998.7 |
| 20260505071546 | 58 | 0 | 0.0 | 5.0 | 0.00 | 0.00 | 0.00 | 80 | 998.7 |
| 20260505070046 | 58 | 0 | 0.0 | 3.0 | 0.00 | 0.00 | 0.00 | 80 | 998.9 |